STARLINK-35884, 67044

Orbit data source: Space-Track

STARLINK-35884, 67044 is a payload satellite owned by SpaceX/Seattle (US) in LEO that was launched on Thu, 11 Dec 2025 UTC via an FALCON 9 launch vehicle from the Air Force Eastern Test Range (AFETR). Payload-class satellites include a variety of spacecraft equipped with specific instruments for various scientific and technological missions. These include communications satellites like Starlink; space stations such as the ISS; scientific satellites like the Hubble; Earth observation satellites from companies like Planet Labs, Umbra, and HawkEye 360; GPS; miniature CubeSats for education and research; and military/defense satellites.

Loading next visibility...
Identifier
67044, 2025-294Q
Orbit
LEO
Country
Flag of USUS
Related business
Manufacturer
SpaceX/Seattle
Mission
Operational Commercial Communications
Bus & Motor
STARLINK V2MO, Unknown motor
Mass
575 kg wet, ~530 kg dry
Launch date (UTC)
2025-12-11 (6 months ago)
Launch vehicle
FALCON 9
Launch site
Air Force Eastern Test Range (AFETR)
Object type
Payload
Rocket body
Debris
Shape & HBR
Box + 2 Pan, 17.7 m
Radar Cross Section
36.964 m², Large (>1 m²)

Expand to show TLE details & history
Last TLE update: 18 hours ago

TLE from 18 hours ago
0 STARLINK-35884
1 67044U 25294Q   26171.08458794  .00011563  00000-0  42887-3 0  9993
2 67044  43.0026 179.4244 0002041 284.4789  75.5836 15.27593922 30460
Epoch: 2026-06-20T02:01Z
TLE epoch observation values (Epoch: 2026-06-20T02:01:48.398Z)
Latitude
-0.00001°
Longitude
-119.33155°
Altitude
482.435 km
Speed
7.626 km/s
True Right ascension
11h 57m 41s
True Declination
0° 00' 00"
Sunlit
Object was in daylight at epoch
Visualization orbit readout
Latitude
Unknown
Longitude
Unknown
Altitude
Unknown
Speed
Unknown
Apparent Right ascension
Unknown
Apparent Declination
Unknown
Sunlit
N/A
Visualization observer readout
Local Sidereal Time
07:13:48
Azimuth
Unknown
Elevation
Unknown
Doppler factor
Unknown
Orbital elements
Apogee altitude
486.353 km
Perigee altitude
483.551 km
Semi-major axis
6,863.089 km
Eccentricity
0.0002
Inclination
43.0026°
RAAN
179.4244°
Arg. of periapsis
284.4789°
True anomaly
75.60625°
Mean anomaly
75.5836°
Eccentric anomaly
75.59493°
Mean motion
3.81737 °/min
Orbital period
94.31 mins
BSTAR
0.00042887
Loading maneuver chart data...
Computing Atmospheric mass density...
Loading historical data...
Loading historical data...
Loading historical data...
Loading historical data...
Loading historical data...
Loading historical data...
Loading historical data...

Documentation

Showing up to 5 results
|